owner,sensor,date,latitude,longitude,sea_surface_height_above_sea_level,qcFlag 
TCOON,ioos:station:TCOON:009:1,2015-04-01T00:12:00Z,27.8398,-97.0727,1.524,1111122 
TCOON,ioos:station:TCOON:009:1,2015-04-01T01:12:00Z,27.8398,-97.0727,1.503,1111122 
TCOON,ioos:station:TCOON:009:1,2015-04-01T02:12:00Z,27.8398,-97.0727,1.499,1111122 
TCOON,ioos:station:TCOON:009:1,2015-04-01T03:24:00Z,27.8398,-97.0727,1.528,1111122 
TCOON,ioos:station:TCOON:009:1,2015-04-01T04:18:00Z,27.8398,-97.0727,1.547,1111122 
TCOON,ioos:station:TCOON:009:1,2015-04-01T05:18:00Z,27.8398,-97.0727,1.568,1111122 
TCOON,ioos:station:TCOON:009:1,2015-04-01T07:06:00Z,27.8398,-97.0727,1.563,1111122 
TCOON,ioos:station:TCOON:009:1,2015-04-01T08:18:00Z,27.8398,-97.0727,1.542,1111122 
TCOON,ioos:station:TCOON:009:1,2015-04-01T09:24:00Z,27.8398,-97.0727,1.528,1111122 
TCOON,ioos:station:TCOON:009:1,2015-04-01T10:18:00Z,27.8398,-97.0727,1.511,1111122 
TCOON,ioos:station:TCOON:009:1,2015-04-01T11:12:00Z,27.8398,-97.0727,1.476,1111122 
TCOON,ioos:station:TCOON:009:1,2015-04-01T12:12:00Z,27.8398,-97.0727,1.455,1111122 
TCOON,ioos:station:TCOON:009:1,2015-04-01T13:12:00Z,27.8398,-97.0727,1.47,1111122 
TCOON,ioos:station:TCOON:009:1,2015-04-01T14:12:00Z,27.8398,-97.0727,1.445,1111122 
TCOON,ioos:station:TCOON:009:1,2015-04-01T15:18:00Z,27.8398,-97.0727,1.477,1111122 
TCOON,ioos:station:TCOON:009:1,2015-04-01T16:18:00Z,27.8398,-97.0727,1.486,1111122 
TCOON,ioos:station:TCOON:009:1,2015-04-01T17:18:00Z,27.8398,-97.0727,1.493,1111122 
TCOON,ioos:station:TCOON:009:1,2015-04-01T18:12:00Z,27.8398,-97.0727,1.543,1111122 
TCOON,ioos:station:TCOON:009:1,2015-04-01T19:18:00Z,27.8398,-97.0727,1.577,1111122 
TCOON,ioos:station:TCOON:009:1,2015-04-01T20:18:00Z,27.8398,-97.0727,1.572,1111122 
TCOON,ioos:station:TCOON:009:1,2015-04-01T21:12:00Z,27.8398,-97.0727,1.552,1111122 
TCOON,ioos:station:TCOON:009:1,2015-04-01T22:18:00Z,27.8398,-97.0727,1.543,1111122 
TCOON,ioos:station:TCOON:009:1,2015-04-01T23:12:00Z,27.8398,-97.0727,1.522,1111122 
TCOON,ioos:station:TCOON:009:1,2015-04-02T00:30:00Z,27.8398,-97.0727,1.538,1111122 
TCOON,ioos:station:TCOON:009:1,2015-04-02T01:12:00Z,27.8398,-97.0727,1.491,1111122 
TCOON,ioos:station:TCOON:009:1,2015-04-02T02:12:00Z,27.8398,-97.0727,1.527,1111122 
TCOON,ioos:station:TCOON:009:1,2015-04-02T03:12:00Z,27.8398,-97.0727,1.511,1111122 
TCOON,ioos:station:TCOON:009:1,2015-04-02T04:18:00Z,27.8398,-97.0727,1.552,1111122 
TCOON,ioos:station:TCOON:009:1,2015-04-02T05:18:00Z,27.8398,-97.0727,1.541,1111122 
TCOON,ioos:station:TCOON:009:1,2015-04-02T06:18:00Z,27.8398,-97.0727,1.579,1111122 
TCOON,ioos:station:TCOON:009:1,2015-04-02T07:12:00Z,27.8398,-97.0727,1.626,1111122 
TCOON,ioos:station:TCOON:009:1,2015-04-02T08:12:00Z,27.8398,-97.0727,1.6,1111122 
TCOON,ioos:station:TCOON:009:1,2015-04-02T09:30:00Z,27.8398,-97.0727,1.556,1111122 
TCOON,ioos:station:TCOON:009:1,2015-04-02T10:12:00Z,27.8398,-97.0727,1.551,1111122 
TCOON,ioos:station:TCOON:009:1,2015-04-02T11:18:00Z,27.8398,-97.0727,1.567,1111122 
TCOON,ioos:station:TCOON:009:1,2015-04-02T12:18:00Z,27.8398,-97.0727,1.522,1111122 
TCOON,ioos:station:TCOON:009:1,2015-04-02T13:18:00Z,27.8398,-97.0727,1.494,1111122 
TCOON,ioos:station:TCOON:009:1,2015-04-02T14:12:00Z,27.8398,-97.0727,1.475,1111122 
TCOON,ioos:station:TCOON:009:1,2015-04-02T15:18:00Z,27.8398,-97.0727,1.516,1111122 
TCOON,ioos:station:TCOON:009:1,2015-04-02T16:12:00Z,27.8398,-97.0727,1.534,1111122 
TCOON,ioos:station:TCOON:009:1,2015-04-02T17:18:00Z,27.8398,-97.0727,1.477,1111122 
TCOON,ioos:station:TCOON:009:1,2015-04-02T18:18:00Z,27.8398,-97.0727,1.587,1111122 
TCOON,ioos:station:TCOON:009:1,2015-04-02T19:12:00Z,27.8398,-97.0727,1.576,1111122 
TCOON,ioos:station:TCOON:009:1,2015-04-02T20:12:00Z,27.8398,-97.0727,1.583,1111122 
TCOON,ioos:station:TCOON:009:1,2015-04-02T21:12:00Z,27.8398,-97.0727,1.591,1111122 
TCOON,ioos:station:TCOON:009:1,2015-04-02T22:12:00Z,27.8398,-97.0727,1.559,1111122 
TCOON,ioos:station:TCOON:009:1,2015-04-02T23:12:00Z,27.8398,-97.0727,1.533,1111122 
TCOON,ioos:station:TCOON:009:1,2015-04-03T00:12:00Z,27.8398,-97.0727,1.424,1111122 
TCOON,ioos:station:TCOON:009:1,2015-04-03T01:12:00Z,27.8398,-97.0727,1.491,1111122 
TCOON,ioos:station:TCOON:009:1,2015-04-03T02:12:00Z,27.8398,-97.0727,1.486,1111122 
TCOON,ioos:station:TCOON:009:1,2015-04-03T03:18:00Z,27.8398,-97.0727,1.475,1111122 
TCOON,ioos:station:TCOON:009:1,2015-04-03T04:12:00Z,27.8398,-97.0727,1.511,1111122 
TCOON,ioos:station:TCOON:009:1,2015-04-03T05:18:00Z,27.8398,-97.0727,1.535,1111122 
TCOON,ioos:station:TCOON:009:1,2015-04-03T06:18:00Z,27.8398,-97.0727,1.572,1111122 
TCOON,ioos:station:TCOON:009:1,2015-04-03T07:12:00Z,27.8398,-97.0727,1.589,1111122 
TCOON,ioos:station:TCOON:009:1,2015-04-03T08:12:00Z,27.8398,-97.0727,1.627,1111122 
TCOON,ioos:station:TCOON:009:1,2015-04-03T09:30:00Z,27.8398,-97.0727,1.585,1111122 
TCOON,ioos:station:TCOON:009:1,2015-04-03T10:12:00Z,27.8398,-97.0727,1.563,1111122 
TCOON,ioos:station:TCOON:009:1,2015-04-03T11:18:00Z,27.8398,-97.0727,1.539,1111122 
TCOON,ioos:station:TCOON:009:1,2015-04-03T12:18:00Z,27.8398,-97.0727,1.521,1111122 
TCOON,ioos:station:TCOON:009:1,2015-04-03T13:12:00Z,27.8398,-97.0727,1.516,1111122 
TCOON,ioos:station:TCOON:009:1,2015-04-03T14:12:00Z,27.8398,-97.0727,1.487,1111122 
TCOON,ioos:station:TCOON:009:1,2015-04-03T15:18:00Z,27.8398,-97.0727,1.494,1111122 
TCOON,ioos:station:TCOON:009:1,2015-04-03T16:12:00Z,27.8398,-97.0727,1.5,1111122 
TCOON,ioos:station:TCOON:009:1,2015-04-03T17:12:00Z,27.8398,-97.0727,1.518,1111122 
TCOON,ioos:station:TCOON:009:1,2015-04-03T18:12:00Z,27.8398,-97.0727,1.558,1111122 
TCOON,ioos:station:TCOON:009:1,2015-04-03T19:12:00Z,27.8398,-97.0727,1.588,1111122 
TCOON,ioos:station:TCOON:009:1,2015-04-03T20:12:00Z,27.8398,-97.0727,1.588,1111122 
TCOON,ioos:station:TCOON:009:1,2015-04-03T21:12:00Z,27.8398,-97.0727,1.575,1111122 
TCOON,ioos:station:TCOON:009:1,2015-04-03T22:12:00Z,27.8398,-97.0727,1.557,1111122 
TCOON,ioos:station:TCOON:009:1,2015-04-03T23:12:00Z,27.8398,-97.0727,1.534,1111122 
TCOON,ioos:station:TCOON:009:1,2015-04-04T00:12:00Z,27.8398,-97.0727,1.49,1111122 
TCOON,ioos:station:TCOON:009:1,2015-04-04T01:30:00Z,27.8398,-97.0727,1.457,1111122 
TCOON,ioos:station:TCOON:009:1,2015-04-04T02:12:00Z,27.8398,-97.0727,1.427,1111122 
TCOON,ioos:station:TCOON:009:1,2015-04-04T03:12:00Z,27.8398,-97.0727,1.439,1111122 
TCOON,ioos:station:TCOON:009:1,2015-04-04T04:12:00Z,27.8398,-97.0727,1.395,1111122 
TCOON,ioos:station:TCOON:009:1,2015-04-04T05:12:00Z,27.8398,-97.0727,1.489,1111122 
TCOON,ioos:station:TCOON:009:1,2015-04-04T07:06:00Z,27.8398,-97.0727,1.539,1111122 
TCOON,ioos:station:TCOON:009:1,2015-04-04T08:12:00Z,27.8398,-97.0727,1.556,1111122 
TCOON,ioos:station:TCOON:009:1,2015-04-04T09:12:00Z,27.8398,-97.0727,1.607,1111122 
TCOON,ioos:station:TCOON:009:1,2015-04-04T10:12:00Z,27.8398,-97.0727,1.603,1111122 
TCOON,ioos:station:TCOON:009:1,2015-04-04T11:12:00Z,27.8398,-97.0727,1.527,1111122 
TCOON,ioos:station:TCOON:009:1,2015-04-04T12:12:00Z,27.8398,-97.0727,1.517,1111122 
TCOON,ioos:station:TCOON:009:1,2015-04-04T13:12:00Z,27.8398,-97.0727,1.532,1111122 
TCOON,ioos:station:TCOON:009:1,2015-04-04T14:12:00Z,27.8398,-97.0727,1.549,1111122 
TCOON,ioos:station:TCOON:009:1,2015-04-04T15:12:00Z,27.8398,-97.0727,1.541,1111122 
TCOON,ioos:station:TCOON:009:1,2015-04-04T16:12:00Z,27.8398,-97.0727,1.569,1111122 
TCOON,ioos:station:TCOON:009:1,2015-04-04T17:12:00Z,27.8398,-97.0727,1.603,1111122 
TCOON,ioos:station:TCOON:009:1,2015-04-04T18:12:00Z,27.8398,-97.0727,1.568,1111122 
TCOON,ioos:station:TCOON:009:1,2015-04-04T19:12:00Z,27.8398,-97.0727,1.614,1111122 
TCOON,ioos:station:TCOON:009:1,2015-04-04T20:12:00Z,27.8398,-97.0727,1.646,1111122 
TCOON,ioos:station:TCOON:009:1,2015-04-04T21:12:00Z,27.8398,-97.0727,1.65,1111122 
TCOON,ioos:station:TCOON:009:1,2015-04-04T22:12:00Z,27.8398,-97.0727,1.619,1111122 
TCOON,ioos:station:TCOON:009:1,2015-04-04T23:12:00Z,27.8398,-97.0727,1.615,1111122 
TCOON,ioos:station:TCOON:009:1,2015-04-05T00:12:00Z,27.8398,-97.0727,1.596,1111122 
TCOON,ioos:station:TCOON:009:1,2015-04-05T01:12:00Z,27.8398,-97.0727,1.599,1111122 
TCOON,ioos:station:TCOON:009:1,2015-04-05T02:12:00Z,27.8398,-97.0727,1.556,1111122 
TCOON,ioos:station:TCOON:009:1,2015-04-05T03:12:00Z,27.8398,-97.0727,1.548,1111122 
TCOON,ioos:station:TCOON:009:1,2015-04-05T04:12:00Z,27.8398,-97.0727,1.557,1111122 
TCOON,ioos:station:TCOON:009:1,2015-04-05T05:12:00Z,27.8398,-97.0727,1.574,1111122 
TCOON,ioos:station:TCOON:009:1,2015-04-05T07:06:00Z,27.8398,-97.0727,1.706,1111122 
TCOON,ioos:station:TCOON:009:1,2015-04-05T08:12:00Z,27.8398,-97.0727,1.71,1111122 
TCOON,ioos:station:TCOON:009:1,2015-04-05T09:12:00Z,27.8398,-97.0727,1.729,1111122 
TCOON,ioos:station:TCOON:009:1,2015-04-05T10:12:00Z,27.8398,-97.0727,1.749,1111122 
TCOON,ioos:station:TCOON:009:1,2015-04-05T11:12:00Z,27.8398,-97.0727,1.765,1111122 
TCOON,ioos:station:TCOON:009:1,2015-04-05T12:12:00Z,27.8398,-97.0727,1.737,1111122 
TCOON,ioos:station:TCOON:009:1,2015-04-05T13:12:00Z,27.8398,-97.0727,1.718,1111122 
TCOON,ioos:station:TCOON:009:1,2015-04-05T14:12:00Z,27.8398,-97.0727,1.711,1111122 
TCOON,ioos:station:TCOON:009:1,2015-04-05T15:18:00Z,27.8398,-97.0727,1.716,1111122 
TCOON,ioos:station:TCOON:009:1,2015-04-05T16:12:00Z,27.8398,-97.0727,1.703,1111122 
TCOON,ioos:station:TCOON:009:1,2015-04-05T17:12:00Z,27.8398,-97.0727,1.723,1111122 
TCOON,ioos:station:TCOON:009:1,2015-04-05T18:12:00Z,27.8398,-97.0727,1.726,1111122 
TCOON,ioos:station:TCOON:009:1,2015-04-05T19:12:00Z,27.8398,-97.0727,1.761,1111122 
TCOON,ioos:station:TCOON:009:1,2015-04-05T20:12:00Z,27.8398,-97.0727,1.756,1111122 
TCOON,ioos:station:TCOON:009:1,2015-04-05T21:12:00Z,27.8398,-97.0727,1.753,1111122 
TCOON,ioos:station:TCOON:009:1,2015-04-05T22:12:00Z,27.8398,-97.0727,1.703,1111122 
TCOON,ioos:station:TCOON:009:1,2015-04-05T23:12:00Z,27.8398,-97.0727,1.651,1111122 
TCOON,ioos:station:TCOON:009:1,2015-04-06T00:12:00Z,27.8398,-97.0727,1.618,1111122 
TCOON,ioos:station:TCOON:009:1,2015-04-06T01:12:00Z,27.8398,-97.0727,1.592,1111122 
TCOON,ioos:station:TCOON:009:1,2015-04-06T02:12:00Z,27.8398,-97.0727,1.545,1111122 
TCOON,ioos:station:TCOON:009:1,2015-04-06T03:12:00Z,27.8398,-97.0727,1.521,1111122 
TCOON,ioos:station:TCOON:009:1,2015-04-06T04:12:00Z,27.8398,-97.0727,1.526,1111122 
TCOON,ioos:station:TCOON:009:1,2015-04-06T05:18:00Z,27.8398,-97.0727,1.541,1111122 
TCOON,ioos:station:TCOON:009:1,2015-04-06T06:18:00Z,27.8398,-97.0727,1.578,1111122 
TCOON,ioos:station:TCOON:009:1,2015-04-06T07:12:00Z,27.8398,-97.0727,1.645,1111122 
TCOON,ioos:station:TCOON:009:1,2015-04-06T08:12:00Z,27.8398,-97.0727,1.675,1111122 
TCOON,ioos:station:TCOON:009:1,2015-04-06T09:18:00Z,27.8398,-97.0727,1.741,1111122 
TCOON,ioos:station:TCOON:009:1,2015-04-06T10:12:00Z,27.8398,-97.0727,1.752,1111122 
TCOON,ioos:station:TCOON:009:1,2015-04-06T11:12:00Z,27.8398,-97.0727,1.767,1111122 
TCOON,ioos:station:TCOON:009:1,2015-04-06T12:12:00Z,27.8398,-97.0727,1.742,1111122 
TCOON,ioos:station:TCOON:009:1,2015-04-06T13:12:00Z,27.8398,-97.0727,1.758,1111122 
TCOON,ioos:station:TCOON:009:1,2015-04-06T14:12:00Z,27.8398,-97.0727,1.749,1111122 
TCOON,ioos:station:TCOON:009:1,2015-04-06T15:18:00Z,27.8398,-97.0727,1.729,1111122 
TCOON,ioos:station:TCOON:009:1,2015-04-06T16:12:00Z,27.8398,-97.0727,1.738,1111122 
TCOON,ioos:station:TCOON:009:1,2015-04-06T17:18:00Z,27.8398,-97.0727,1.742,1111122 
TCOON,ioos:station:TCOON:009:1,2015-04-06T18:18:00Z,27.8398,-97.0727,1.745,1111122 
TCOON,ioos:station:TCOON:009:1,2015-04-06T19:18:00Z,27.8398,-97.0727,1.641,1111122 
TCOON,ioos:station:TCOON:009:1,2015-04-06T20:18:00Z,27.8398,-97.0727,1.767,1111122 
TCOON,ioos:station:TCOON:009:1,2015-04-06T21:18:00Z,27.8398,-97.0727,1.77,1111122 
TCOON,ioos:station:TCOON:009:1,2015-04-06T22:18:00Z,27.8398,-97.0727,1.755,1111122 
TCOON,ioos:station:TCOON:009:1,2015-04-06T23:12:00Z,27.8398,-97.0727,1.73,1111122 
TCOON,ioos:station:TCOON:009:1,2015-04-07T00:18:00Z,27.8398,-97.0727,1.677,1111122 
TCOON,ioos:station:TCOON:009:1,2015-04-07T01:12:00Z,27.8398,-97.0727,1.624,1111122 
TCOON,ioos:station:TCOON:009:1,2015-04-07T02:12:00Z,27.8398,-97.0727,1.566,1111122 
TCOON,ioos:station:TCOON:009:1,2015-04-07T03:12:00Z,27.8398,-97.0727,1.523,1111122 
TCOON,ioos:station:TCOON:009:1,2015-04-07T04:18:00Z,27.8398,-97.0727,1.544,1111122 
TCOON,ioos:station:TCOON:009:1,2015-04-07T05:12:00Z,27.8398,-97.0727,1.53,1111122 
TCOON,ioos:station:TCOON:009:1,2015-04-07T07:06:00Z,27.8398,-97.0727,1.673,1111122 
TCOON,ioos:station:TCOON:009:1,2015-04-07T08:12:00Z,27.8398,-97.0727,1.66,1111122 
TCOON,ioos:station:TCOON:009:1,2015-04-07T09:18:00Z,27.8398,-97.0727,1.718,1111122 
TCOON,ioos:station:TCOON:009:1,2015-04-07T10:12:00Z,27.8398,-97.0727,1.754,1111122 
TCOON,ioos:station:TCOON:009:1,2015-04-07T11:18:00Z,27.8398,-97.0727,1.784,1111122 
TCOON,ioos:station:TCOON:009:1,2015-04-07T12:18:00Z,27.8398,-97.0727,1.783,1111122 
TCOON,ioos:station:TCOON:009:1,2015-04-07T13:12:00Z,27.8398,-97.0727,1.767,1111122 
TCOON,ioos:station:TCOON:009:1,2015-04-07T14:12:00Z,27.8398,-97.0727,1.768,1111122 
TCOON,ioos:station:TCOON:009:1,2015-04-07T15:18:00Z,27.8398,-97.0727,1.757,1111122 
TCOON,ioos:station:TCOON:009:1,2015-04-07T16:18:00Z,27.8398,-97.0727,1.746,1111122 
TCOON,ioos:station:TCOON:009:1,2015-04-07T17:18:00Z,27.8398,-97.0727,1.733,1111122 
TCOON,ioos:station:TCOON:009:1,2015-04-07T18:18:00Z,27.8398,-97.0727,1.72,1111122 
TCOON,ioos:station:TCOON:009:1,2015-04-07T19:18:00Z,27.8398,-97.0727,1.713,1111122 
TCOON,ioos:station:TCOON:009:1,2015-04-07T20:12:00Z,27.8398,-97.0727,1.708,1111122 
TCOON,ioos:station:TCOON:009:1,2015-04-07T21:18:00Z,27.8398,-97.0727,1.687,1111122 
TCOON,ioos:station:TCOON:009:1,2015-04-07T22:24:00Z,27.8398,-97.0727,1.678,1111122 
TCOON,ioos:station:TCOON:009:1,2015-04-07T23:12:00Z,27.8398,-97.0727,1.663,1111122 
TCOON,ioos:station:TCOON:009:1,2015-04-08T00:12:00Z,27.8398,-97.0727,1.614,1111122 
TCOON,ioos:station:TCOON:009:1,2015-04-08T01:12:00Z,27.8398,-97.0727,1.551,1111122 
TCOON,ioos:station:TCOON:009:1,2015-04-08T02:12:00Z,27.8398,-97.0727,1.444,1111122 
TCOON,ioos:station:TCOON:009:1,2015-04-08T03:12:00Z,27.8398,-97.0727,1.463,1111122 
TCOON,ioos:station:TCOON:009:1,2015-04-08T04:12:00Z,27.8398,-97.0727,1.463,1111122 
TCOON,ioos:station:TCOON:009:1,2015-04-08T05:18:00Z,27.8398,-97.0727,1.461,1111122 
TCOON,ioos:station:TCOON:009:1,2015-04-08T07:06:00Z,27.8398,-97.0727,1.467,1111122 
TCOON,ioos:station:TCOON:009:1,2015-04-08T08:12:00Z,27.8398,-97.0727,1.534,1111122 
TCOON,ioos:station:TCOON:009:1,2015-04-08T09:18:00Z,27.8398,-97.0727,1.637,1111122 
TCOON,ioos:station:TCOON:009:1,2015-04-08T10:12:00Z,27.8398,-97.0727,1.672,1111122 
TCOON,ioos:station:TCOON:009:1,2015-04-08T11:12:00Z,27.8398,-97.0727,1.715,1111122 
TCOON,ioos:station:TCOON:009:1,2015-04-08T12:12:00Z,27.8398,-97.0727,1.721,1111122 
TCOON,ioos:station:TCOON:009:1,2015-04-08T13:18:00Z,27.8398,-97.0727,1.729,1111122 
TCOON,ioos:station:TCOON:009:1,2015-04-08T14:12:00Z,27.8398,-97.0727,1.74,1111122 
TCOON,ioos:station:TCOON:009:1,2015-04-08T15:24:00Z,27.8398,-97.0727,1.662,1111122 
TCOON,ioos:station:TCOON:009:1,2015-04-08T16:18:00Z,27.8398,-97.0727,1.73,1111122 
TCOON,ioos:station:TCOON:009:1,2015-04-08T17:18:00Z,27.8398,-97.0727,1.745,1111122 
TCOON,ioos:station:TCOON:009:1,2015-04-08T18:12:00Z,27.8398,-97.0727,1.73,1111122 
TCOON,ioos:station:TCOON:009:1,2015-04-08T19:18:00Z,27.8398,-97.0727,1.723,1111122 
TCOON,ioos:station:TCOON:009:1,2015-04-08T20:24:00Z,27.8398,-97.0727,1.78,1111122 
TCOON,ioos:station:TCOON:009:1,2015-04-08T21:12:00Z,27.8398,-97.0727,1.737,1111122 
TCOON,ioos:station:TCOON:009:1,2015-04-08T22:18:00Z,27.8398,-97.0727,1.741,1111122 
TCOON,ioos:station:TCOON:009:1,2015-04-08T23:42:00Z,27.8398,-97.0727,1.712,1111122 
TCOON,ioos:station:TCOON:009:1,2015-04-09T00:18:00Z,27.8398,-97.0727,1.692,1111122 
TCOON,ioos:station:TCOON:009:1,2015-04-09T01:12:00Z,27.8398,-97.0727,1.625,1111122 
TCOON,ioos:station:TCOON:009:1,2015-04-09T03:12:00Z,27.8398,-97.0727,1.525,1111122 
TCOON,ioos:station:TCOON:009:1,2015-04-09T04:12:00Z,27.8398,-97.0727,1.477,1111122 
TCOON,ioos:station:TCOON:009:1,2015-04-09T05:12:00Z,27.8398,-97.0727,1.469,1111122 
TCOON,ioos:station:TCOON:009:1,2015-04-09T07:06:00Z,27.8398,-97.0727,1.489,1111122 
TCOON,ioos:station:TCOON:009:1,2015-04-09T08:18:00Z,27.8398,-97.0727,1.555,1111122 
TCOON,ioos:station:TCOON:009:1,2015-04-09T09:36:00Z,27.8398,-97.0727,1.645,1111122 
TCOON,ioos:station:TCOON:009:1,2015-04-09T10:12:00Z,27.8398,-97.0727,1.672,1111122 
TCOON,ioos:station:TCOON:009:1,2015-04-09T11:12:00Z,27.8398,-97.0727,1.742,1111122 
TCOON,ioos:station:TCOON:009:1,2015-04-09T12:18:00Z,27.8398,-97.0727,1.731,1111122 
TCOON,ioos:station:TCOON:009:1,2015-04-09T13:18:00Z,27.8398,-97.0727,1.753,1111122 
TCOON,ioos:station:TCOON:009:1,2015-04-09T14:12:00Z,27.8398,-97.0727,1.762,1111122 
TCOON,ioos:station:TCOON:009:1,2015-04-09T15:18:00Z,27.8398,-97.0727,1.766,1111122 
TCOON,ioos:station:TCOON:009:1,2015-04-09T16:18:00Z,27.8398,-97.0727,1.736,1111122 
TCOON,ioos:station:TCOON:009:1,2015-04-09T17:18:00Z,27.8398,-97.0727,1.714,1111122 
TCOON,ioos:station:TCOON:009:1,2015-04-09T18:36:00Z,27.8398,-97.0727,1.735,1111122 
TCOON,ioos:station:TCOON:009:1,2015-04-09T19:30:00Z,27.8398,-97.0727,1.751,1111122 
TCOON,ioos:station:TCOON:009:1,2015-04-09T20:24:00Z,27.8398,-97.0727,1.739,1111122 
TCOON,ioos:station:TCOON:009:1,2015-04-09T21:36:00Z,27.8398,-97.0727,1.734,1111122 
TCOON,ioos:station:TCOON:009:1,2015-04-09T22:18:00Z,27.8398,-97.0727,1.688,1111122 
TCOON,ioos:station:TCOON:009:1,2015-04-09T23:18:00Z,27.8398,-97.0727,1.689,1111122 
TCOON,ioos:station:TCOON:009:1,2015-04-10T00:12:00Z,27.8398,-97.0727,1.666,1111122 
TCOON,ioos:station:TCOON:009:1,2015-04-10T01:12:00Z,27.8398,-97.0727,1.612,1111122 
TCOON,ioos:station:TCOON:009:1,2015-04-10T02:12:00Z,27.8398,-97.0727,1.542,1111122 
TCOON,ioos:station:TCOON:009:1,2015-04-10T03:12:00Z,27.8398,-97.0727,1.486,1111122 
TCOON,ioos:station:TCOON:009:1,2015-04-10T04:24:00Z,27.8398,-97.0727,1.437,1111122 
TCOON,ioos:station:TCOON:009:1,2015-04-10T05:18:00Z,27.8398,-97.0727,1.447,1111122 
TCOON,ioos:station:TCOON:009:1,2015-04-10T07:30:00Z,27.8398,-97.0727,1.444,1111122 
TCOON,ioos:station:TCOON:009:1,2015-04-10T08:18:00Z,27.8398,-97.0727,1.477,1111122 
TCOON,ioos:station:TCOON:009:1,2015-04-10T09:24:00Z,27.8398,-97.0727,1.47,1111122 
TCOON,ioos:station:TCOON:009:1,2015-04-10T10:18:00Z,27.8398,-97.0727,1.532,1111122 
TCOON,ioos:station:TCOON:009:1,2015-04-10T11:12:00Z,27.8398,-97.0727,1.602,1111122 
TCOON,ioos:station:TCOON:009:1,2015-04-10T12:18:00Z,27.8398,-97.0727,1.664,1111122 
TCOON,ioos:station:TCOON:009:1,2015-04-10T13:18:00Z,27.8398,-97.0727,1.717,1111122 
TCOON,ioos:station:TCOON:009:1,2015-04-10T14:36:00Z,27.8398,-97.0727,1.713,1111122 
TCOON,ioos:station:TCOON:009:1,2015-04-10T15:18:00Z,27.8398,-97.0727,1.698,1111122 
TCOON,ioos:station:TCOON:009:1,2015-04-10T16:12:00Z,27.8398,-97.0727,1.702,1111122 
TCOON,ioos:station:TCOON:009:1,2015-04-10T17:18:00Z,27.8398,-97.0727,1.73,1111122 
TCOON,ioos:station:TCOON:009:1,2015-04-10T18:36:00Z,27.8398,-97.0727,1.71,1111122 
TCOON,ioos:station:TCOON:009:1,2015-04-10T20:48:00Z,27.8398,-97.0727,1.691,1111122 
TCOON,ioos:station:TCOON:009:1,2015-04-10T21:12:00Z,27.8398,-97.0727,1.687,1111122 
TCOON,ioos:station:TCOON:009:1,2015-04-10T22:24:00Z,27.8398,-97.0727,1.669,1111122 
TCOON,ioos:station:TCOON:009:1,2015-04-10T23:18:00Z,27.8398,-97.0727,1.637,1111122 
TCOON,ioos:station:TCOON:009:1,2015-04-11T00:48:00Z,27.8398,-97.0727,1.655,1111122 
TCOON,ioos:station:TCOON:009:1,2015-04-11T01:24:00Z,27.8398,-97.0727,1.615,1111122 
TCOON,ioos:station:TCOON:009:1,2015-04-11T02:12:00Z,27.8398,-97.0727,1.585,1111122 
TCOON,ioos:station:TCOON:009:1,2015-04-11T03:12:00Z,27.8398,-97.0727,1.538,1111122 
TCOON,ioos:station:TCOON:009:1,2015-04-11T04:18:00Z,27.8398,-97.0727,1.48,1111122 
TCOON,ioos:station:TCOON:009:1,2015-04-11T05:12:00Z,27.8398,-97.0727,1.419,1111122 
TCOON,ioos:station:TCOON:009:1,2015-04-11T06:30:00Z,27.8398,-97.0727,1.429,1111122 
TCOON,ioos:station:TCOON:009:1,2015-04-11T07:42:00Z,27.8398,-97.0727,1.383,1111122 
TCOON,ioos:station:TCOON:009:1,2015-04-11T08:30:00Z,27.8398,-97.0727,1.417,1111122 
TCOON,ioos:station:TCOON:009:1,2015-04-11T09:12:00Z,27.8398,-97.0727,1.43,1111122 
TCOON,ioos:station:TCOON:009:1,2015-04-11T10:18:00Z,27.8398,-97.0727,1.453,1111122 
TCOON,ioos:station:TCOON:009:1,2015-04-11T11:18:00Z,27.8398,-97.0727,1.538,1111122 
TCOON,ioos:station:TCOON:009:1,2015-04-11T12:12:00Z,27.8398,-97.0727,1.607,1111122 
TCOON,ioos:station:TCOON:009:1,2015-04-11T13:12:00Z,27.8398,-97.0727,1.657,1111122 
TCOON,ioos:station:TCOON:009:1,2015-04-11T14:12:00Z,27.8398,-97.0727,1.642,1111122 
TCOON,ioos:station:TCOON:009:1,2015-04-11T15:24:00Z,27.8398,-97.0727,1.705,1111122 
TCOON,ioos:station:TCOON:009:1,2015-04-11T16:12:00Z,27.8398,-97.0727,1.701,1111122 
TCOON,ioos:station:TCOON:009:1,2015-04-11T17:12:00Z,27.8398,-97.0727,1.739,1111122 
TCOON,ioos:station:TCOON:009:1,2015-04-11T18:24:00Z,27.8398,-97.0727,1.736,1111122 
TCOON,ioos:station:TCOON:009:1,2015-04-11T19:24:00Z,27.8398,-97.0727,1.737,1111122 
TCOON,ioos:station:TCOON:009:1,2015-04-11T20:30:00Z,27.8398,-97.0727,1.691,1111122 
TCOON,ioos:station:TCOON:009:1,2015-04-11T21:12:00Z,27.8398,-97.0727,1.732,1111122 
TCOON,ioos:station:TCOON:009:1,2015-04-11T23:06:00Z,27.8398,-97.0727,1.729,1111122 
TCOON,ioos:station:TCOON:009:1,2015-04-12T00:12:00Z,27.8398,-97.0727,1.701,1111122 
TCOON,ioos:station:TCOON:009:1,2015-04-12T01:12:00Z,27.8398,-97.0727,1.697,1111122 
TCOON,ioos:station:TCOON:009:1,2015-04-12T02:12:00Z,27.8398,-97.0727,1.676,1111122 
TCOON,ioos:station:TCOON:009:1,2015-04-12T03:12:00Z,27.8398,-97.0727,1.658,1111122 
TCOON,ioos:station:TCOON:009:1,2015-04-12T04:12:00Z,27.8398,-97.0727,1.6,1111122 
TCOON,ioos:station:TCOON:009:1,2015-04-12T05:12:00Z,27.8398,-97.0727,1.547,1111122 
TCOON,ioos:station:TCOON:009:1,2015-04-12T07:06:00Z,27.8398,-97.0727,1.51,1111122 
TCOON,ioos:station:TCOON:009:1,2015-04-12T08:30:00Z,27.8398,-97.0727,1.511,1111122 
TCOON,ioos:station:TCOON:009:1,2015-04-12T09:12:00Z,27.8398,-97.0727,1.504,1111122 
TCOON,ioos:station:TCOON:009:1,2015-04-12T10:12:00Z,27.8398,-97.0727,1.516,1111122 
TCOON,ioos:station:TCOON:009:1,2015-04-12T11:12:00Z,27.8398,-97.0727,1.554,1111122 
TCOON,ioos:station:TCOON:009:1,2015-04-12T12:12:00Z,27.8398,-97.0727,1.637,1111122 
TCOON,ioos:station:TCOON:009:1,2015-04-12T13:24:00Z,27.8398,-97.0727,1.693,1111122 
TCOON,ioos:station:TCOON:009:1,2015-04-12T14:42:00Z,27.8398,-97.0727,1.709,1111122 
TCOON,ioos:station:TCOON:009:1,2015-04-12T15:24:00Z,27.8398,-97.0727,1.777,1111122 
TCOON,ioos:station:TCOON:009:1,2015-04-12T16:36:00Z,27.8398,-97.0727,1.774,1111122 
TCOON,ioos:station:TCOON:009:1,2015-04-12T17:12:00Z,27.8398,-97.0727,1.725,1111122 
TCOON,ioos:station:TCOON:009:1,2015-04-12T18:12:00Z,27.8398,-97.0727,1.806,1111122 
TCOON,ioos:station:TCOON:009:1,2015-04-12T19:24:00Z,27.8398,-97.0727,1.765,1111122 
TCOON,ioos:station:TCOON:009:1,2015-04-12T22:12:00Z,27.8398,-97.0727,1.74,1111122 
TCOON,ioos:station:TCOON:009:1,2015-04-12T23:12:00Z,27.8398,-97.0727,1.759,1111122 
TCOON,ioos:station:TCOON:009:1,2015-04-13T00:24:00Z,27.8398,-97.0727,1.743,1111122 
TCOON,ioos:station:TCOON:009:1,2015-04-13T01:12:00Z,27.8398,-97.0727,1.786,1111122 
TCOON,ioos:station:TCOON:009:1,2015-04-13T02:24:00Z,27.8398,-97.0727,1.762,1111122 
TCOON,ioos:station:TCOON:009:1,2015-04-13T03:12:00Z,27.8398,-97.0727,1.716,1111122 
TCOON,ioos:station:TCOON:009:1,2015-04-13T04:24:00Z,27.8398,-97.0727,1.771,1111122 
TCOON,ioos:station:TCOON:009:1,2015-04-13T05:18:00Z,27.8398,-97.0727,1.722,1111122 
TCOON,ioos:station:TCOON:009:1,2015-04-13T07:36:00Z,27.8398,-97.0727,1.504,1111122 
TCOON,ioos:station:TCOON:009:1,2015-04-13T08:18:00Z,27.8398,-97.0727,1.513,1111122 
TCOON,ioos:station:TCOON:009:1,2015-04-13T09:24:00Z,27.8398,-97.0727,1.667,1111122 
TCOON,ioos:station:TCOON:009:1,2015-04-13T10:18:00Z,27.8398,-97.0727,1.656,1111122 